EW0534 Weather Reports


time (UTC)temp
C
wind
direction
speed
KPH
gust
KPH
rain 1hr
cm
rain 24hr
cm
rain mn
cm
humidity
%
barometer
mb
20260508200530 20 285 4.8 17.7 0.00 0.00 0.00 41 1010.5
20260508200034 20 285 6.4 20.9 0.00 0.00 0.00 39 1010.6
20260508195529 21 276 3.2 20.9 0.00 0.00 0.00 40 1010.6
20260508195032 21 315 3.2 19.3 0.00 0.00 0.00 43 1010.6
20260508194529 21 252 4.8 25.7 0.00 0.00 0.00 39 1010.6
20260508194027 22 288 4.8 16.1 0.00 0.00 0.00 42 1010.6
20260508193527 21 265 4.8 19.3 0.00 0.00 0.00 43 1010.6
20260508193028 21 205 4.8 19.3 0.00 0.00 0.00 41 1010.5
20260508192526 21 284 6.4 20.9 0.00 0.00 0.00 40 1011.0
20260508192026 21 200 4.8 19.3 0.00 0.00 0.00 39 1011.0
20260508191527 21 270 6.4 22.5 0.00 0.00 0.00 39 1011.0
20260508191025 21 181 9.7 22.5 0.00 0.00 0.00 39 1011.2
20260508190525 21 257 4.8 17.7 0.00 0.00 0.00 40 1011.3
20260508190023 21 297 6.4 17.7 0.00 0.00 0.00 42 1011.4
20260508185523 21 200 4.8 14.5 0.00 0.00 0.00 42 1011.5
20260508185022 21 330 6.4 14.5 0.00 0.00 0.00 39 1011.5
20260508184522 21 220 6.4 17.7 0.00 0.00 0.00 45 1011.6
20260508184021 21 207 4.8 17.7 0.00 0.00 0.00 42 1011.7
20260508183523 21 260 6.4 32.2 0.00 0.00 0.00 42 1011.8
20260508183020 21 185 11.3 32.2 0.00 0.00 0.00 41 1011.8
20260508182521 20 292 6.4 19.3 0.00 0.00 0.00 48 1012.0
20260508182018 20 298 3.2 17.7 0.00 0.00 0.00 44 1012.1
20260508181520 20 238 4.8 17.7 0.00 0.00 0.00 44 1012.2
20260508181017 20 229 3.2 11.3 0.00 0.00 0.00 46 1012.2
20260508180516 19 214 3.2 12.9 0.00 0.00 0.00 44 1012.3
20260508180019 19 253 4.8 14.5 0.00 0.00 0.00 44 1012.4
20260508175515 19 236 4.8 19.3 0.00 0.00 0.00 45 1012.5
20260508175017 19 264 9.7 19.3 0.00 0.00 0.00 44 1012.6
20260508174514 19 243 8.0 22.5 0.00 0.00 0.00 42 1012.7
20260508174013 20 159 6.4 24.1 0.00 0.00 0.00 44 1012.8
20260508173512 20 255 11.3 25.7 0.00 0.00 0.00 43 1012.8
20260508173012 20 161 12.9 25.7 0.00 0.00 0.00 45 1012.9
20260508172510 20 256 3.2 22.5 0.00 0.00 0.00 45 1013.0
20260508172010 20 215 8.0 22.5 0.00 0.00 0.00 44 1013.1
20260508171521 20 231 9.7 20.9 0.00 0.00 0.00 44 1013.3
20260508171007 21 292 6.4 17.7 0.00 0.00 0.00 47 1013.4
20260508170508 20 233 4.8 14.5 0.00 0.00 0.00 49 1013.5
20260508170006 20 307 4.8 17.7 0.00 0.00 0.00 46 1013.5
20260508165505 20 225 4.8 17.7 0.00 0.00 0.00 48 1013.4
20260508165006 19 282 4.8 12.9 0.00 0.00 0.00 48 1013.5
20260508164503 20 284 4.8 17.7 0.00 0.00 0.00 46 1013.6
20260508164002 20 232 4.8 17.7 0.00 0.00 0.00 48 1013.8
20260508163501 20 188 8.0 16.1 0.00 0.00 0.00 46 1013.8
20260508163111 19 279 4.8 17.7 0.00 0.00 0.00 47 1013.9
20260508162559 19 273 4.8 22.5 0.00 0.00 0.00 47 1014.0
20260508162101 19 182 6.4 22.5 0.00 0.00 0.00 48 1014.1
20260508161559 19 230 6.4 17.7 0.00 0.00 0.00 47 1014.2
20260508161102 19 273 8.0 14.5 0.00 0.00 0.00 47 1014.2
20260508160558 18 197 3.2 19.3 0.00 0.00 0.00 48 1014.3
20260508160055 18 260 4.8 19.3 0.00 0.00 0.00 50 1014.2
20260508155554 19 264 4.8 16.1 0.00 0.00 0.00 52 1014.3
20260508155053 18 253 4.8 16.1 0.00 0.00 0.00 54 1014.3
20260508154552 18 230 6.4 17.7 0.00 0.00 0.00 49 1014.4
20260508154049 18 275 8.0 17.7 0.00 0.00 0.00 51 1014.5
20260508153548 17 238 4.8 17.7 0.00 0.00 0.00 49 1014.6
20260508153047 17 228 6.4 17.7 0.00 0.00 0.00 50 1014.7
20260508152545 17 249 3.2 14.5 0.00 0.00 0.00 53 1014.8
20260508152043 17 163 4.8 14.5 0.00 0.00 0.00 53 1014.8
20260508151542 17 178 6.4 16.1 0.00 0.00 0.00 51 1014.8
20260508151041 17 279 4.8 16.1 0.00 0.00 0.00 52 1014.9
20260508150539 16 273 6.4 16.1 0.00 0.00 0.00 51 1014.9
20260508150038 16 218 8.0 14.5 0.00 0.00 0.00 51 1015.1
20260508145537 16 255 4.8 20.9 0.00 0.00 0.00 53 1015.0
20260508145037 16 219 6.4 20.9 0.00 0.00 0.00 51 1015.0
20260508144535 16 282 8.0 22.5 0.00 0.00 0.00 52 1015.1
20260508144036 16 229 4.8 22.5 0.00 0.00 0.00 53 1015.1
20260508143534 16 285 4.8 12.9 0.00 0.00 0.00 54 1015.1
20260508143045 16 288 3.2 16.1 0.00 0.00 0.00 54 1015.1
20260508142530 15 290 8.0 16.1 0.00 0.00 0.00 52 1015.2
20260508142032 15 262 1.6 19.3 0.00 0.00 0.00 55 1015.2
20260508141528 15 254 6.4 19.3 0.00 0.00 0.00 54 1015.2
20260508141027 15 215 4.8 19.3 0.00 0.00 0.00 53 1015.3
20260508140526 15 232 6.4 19.3 0.00 0.00 0.00 54 1015.3
20260508140034 15 228 4.8 12.9 0.00 0.00 0.00 55 1015.3
20260508135523 14 246 3.2 14.5 0.00 0.00 0.00 58 1015.4
20260508135020 14 297 6.4 14.5 0.00 0.00 0.00 59 1015.5
20260508134541 13 267 4.8 14.5 0.00 0.00 0.00 60 1015.5
20260508134035 13 215 3.2 12.9 0.00 0.00 0.00 63 1015.5
20260508133533 12 250 3.2 9.7 0.00 0.00 0.00 63 1015.5
20260508133035 12 181 3.2 12.9 0.00 0.00 0.00 66 1015.5
20260508132530 12 214 3.2 12.9 0.00 0.00 0.00 66 1015.5
20260508132031 11 188 1.6 8.0 0.00 0.00 0.00 69 1015.4
20260508131528 10 203 0.0 9.7 0.00 0.00 0.00 69 1015.5
20260508131027 10 229 3.2 9.7 0.00 0.00 0.00 69 1015.5
20260508130527 10 205 1.6 9.7 0.00 0.00 0.00 70 1015.4
20260508130034 10 190 3.2 9.7 0.00 0.00 0.00 71 1015.4
20260508125528 10 164 1.6 11.3 0.00 0.00 0.00 70 1015.4
20260508125024 10 162 3.2 9.7 0.00 0.00 0.00 70 1015.5
20260508124532 10 232 3.2 8.0 0.00 0.00 0.00 70 1015.4
20260508124022 10 179 3.2 11.3 0.00 0.00 0.00 71 1015.4
20260508123521 10 203 1.6 11.3 0.00 0.00 0.00 71 1015.4
20260508123028 9 178 1.6 9.7 0.00 0.00 0.00 73 1015.4
20260508122519 9 205 1.6 8.0 0.00 0.00 0.00 74 1015.5
20260508122018 8 205 0.0 8.0 0.00 0.00 0.00 74 1015.4
20260508121517 8 217 1.6 6.4 0.00 0.00 0.00 74 1015.5
20260508121017 8 193 0.0 6.4 0.00 0.00 0.00 75 1015.4
20260508120516 8 192 1.6 11.3 0.00 0.00 0.00 76 1015.3
20260508120015 8 259 4.8 11.3 0.00 0.00 0.00 75 1015.3
20260508115514 8 186 3.2 6.4 0.00 0.00 0.00 76 1015.2
20260508115012 7 188 1.6 6.4 0.00 0.00 0.00 75 1015.2
20260508114511 7 217 0.0 6.4 0.00 0.00 0.00 76 1015.1
20260508114010 7 186 0.0 9.7 0.00 0.00 0.00 76 1015.1
20260508113509 7 183 1.6 8.0 0.00 0.00 0.00 76 1015.1
20260508113012 7 194 1.6 8.0 0.00 0.00 0.00 77 1015.1
20260508112507 7 194 1.6 8.0 0.00 0.00 0.00 78 1015.0
20260508112006 7 206 0.0 6.4 0.00 0.00 0.00 78 1015.0
20260508111505 7 198 0.0 6.4 0.00 0.00 0.00 79 1015.0
20260508111006 7 196 0.0 6.4 0.00 0.00 0.00 80 1015.0
20260508110502 6 171 1.6 6.4 0.00 0.00 0.00 81 1015.0
20260508110001 6 188 0.0 4.8 0.00 0.00 0.00 83 1015.0
20260508105502 6 229 0.0 0.0 0.00 0.00 0.00 84 1015.0
20260508105001 6 229 0.0 0.0 0.00 0.00 0.00 85 1014.9
20260508104605 5 229 0.0 1.6 0.00 0.00 0.00 85 1014.9
20260508104059 5 229 0.0 4.8 0.00 0.00 0.00 87 1015.0
20260508103559 5 229 0.0 4.8 0.00 0.00 0.00 88 1014.9
20260508103059 5 229 0.0 1.6 0.00 0.00 0.00 89 1014.8
20260508102558 5 229 0.0 1.6 0.00 0.00 0.00 90 1014.8
20260508102101 5 229 0.0 1.6 0.00 0.00 0.00 91 1014.9
20260508101559 5 229 0.0 1.6 0.00 0.00 0.00 91 1014.8
20260508101058 4 229 0.0 1.6 0.00 0.00 0.00 91 1014.8
20260508100601 4 229 0.0 0.0 0.00 0.00 0.00 90 1014.8
20260508095557 4 229 0.0 0.0 0.00 0.00 0.00 90 1014.7
20260508095057 4 229 0.0 0.0 0.00 0.00 0.00 90 1014.8
20260508094603 4 229 0.0 0.0 0.00 0.00 0.00 90 1014.7
20260508094056 4 229 0.0 0.0 0.00 0.00 0.00 90 1014.8
20260508093556 4 229 0.0 0.0 0.00 0.00 0.00 90 1014.8
20260508093058 4 229 0.0 0.0 0.00 0.00 0.00 90 1014.8
20260508092555 4 229 0.0 0.0 0.00 0.00 0.00 90 1014.8
20260508092055 4 229 0.0 0.0 0.00 0.00 0.00 89 1014.8
20260508091605 4 229 0.0 0.0 0.00 0.00 0.00 89 1014.9
20260508091056 4 229 0.0 0.0 0.00 0.00 0.00 89 1014.8
20260508090554 4 229 0.0 0.0 0.00 0.00 0.00 89 1014.8
20260508090108 4 229 0.0 0.0 0.00 0.00 0.00 89 1014.7
20260508085553 4 229 0.0 0.0 0.00 0.00 0.00 89 1014.7
20260508085053 4 229 0.0 0.0 0.00 0.00 0.00 88 1014.6
20260508084553 4 229 0.0 0.0 0.00 0.00 0.00 88 1014.5
20260508084053 4 229 0.0 0.0 0.00 0.00 0.00 88 1014.6
20260508083552 5 229 0.0 0.0 0.00 0.00 0.00 87 1014.6
20260508083051 5 229 0.0 0.0 0.00 0.00 0.00 87 1014.7
20260508082552 5 229 0.0 0.0 0.00 0.00 0.00 87 1014.6
20260508082051 5 229 0.0 0.0 0.00 0.00 0.00 87 1014.6
20260508081602 5 229 0.0 0.0 0.00 0.00 0.00 87 1014.6
20260508081049 5 229 0.0 0.0 0.00 0.00 0.00 86 1014.7
20260508080549 5 229 0.0 0.0 0.00 0.00 0.00 86 1014.7
20260508080051 5 229 0.0 0.0 0.00 0.00 0.00 86 1014.5
20260508075548 5 229 0.0 0.0 0.00 0.00 0.00 86 1014.5
20260508075047 5 229 0.0 0.0 0.00 0.00 0.00 86 1014.5
20260508074548 5 229 0.0 0.0 0.00 0.00 0.00 86 1014.6
20260508074050 5 229 0.0 0.0 0.00 0.00 0.00 85 1014.6
20260508073545 5 229 0.0 0.0 0.00 0.00 0.00 85 1014.6
20260508073051 6 229 0.0 0.0 0.00 0.00 0.00 85 1014.5
20260508072544 6 229 0.0 0.0 0.00 0.00 0.00 85 1014.5
20260508072044 6 229 0.0 0.0 0.00 0.00 0.00 85 1014.5
20260508071555 6 229 0.0 0.0 0.00 0.00 0.00 84 1014.7
20260508071042 6 229 0.0 0.0 0.00 0.00 0.00 83 1014.7
20260508070542 6 229 0.0 0.0 0.00 0.00 0.00 82 1014.8
20260508070053 6 229 0.0 0.0 0.00 0.00 0.00 82 1014.8
20260508065544 6 229 0.0 0.0 0.00 0.00 0.00 82 1014.8
20260508065040 6 229 0.0 0.0 0.00 0.00 0.00 81 1015.0
20260508064543 6 229 0.0 0.0 0.00 0.00 0.00 81 1015.0
20260508064040 6 229 0.0 0.0 0.00 0.00 0.00 80 1015.1
20260508063540 6 229 0.0 0.0 0.00 0.00 0.00 80 1015.0
20260508063039 6 229 0.0 0.0 0.00 0.00 0.00 80 1015.0
20260508062539 6 229 0.0 0.0 0.00 0.00 0.00 80 1015.1
20260508062038 6 229 0.0 0.0 0.00 0.00 0.00 81 1015.1
20260508061538 6 229 0.0 0.0 0.00 0.00 0.00 82 1015.2
20260508061038 6 229 0.0 3.2 0.00 0.00 0.00 82 1015.2
20260508060537 6 229 0.0 3.2 0.00 0.00 0.00 83 1015.2
20260508060039 5 298 0.0 0.0 0.00 0.00 0.00 84 1015.2
20260508055541 5 298 0.0 0.0 0.00 0.00 0.00 84 1015.2
20260508055037 5 298 0.0 0.0 0.00 0.00 0.00 85 1015.2
20260508054542 5 298 0.0 0.0 0.00 0.00 0.00 85 1015.2
20260508054035 6 298 0.0 0.0 0.00 0.00 0.00 86 1015.2
20260508053539 6 298 0.0 0.0 0.00 0.00 0.00 86 1015.1
20260508053041 6 298 0.0 0.0 0.00 0.00 0.00 86 1015.1
20260508052535 6 298 0.0 0.0 0.00 0.00 0.00 86 1015.2
20260508052034 6 298 0.0 0.0 0.00 0.00 0.00 86 1015.1
20260508051539 6 298 0.0 0.0 0.00 0.00 0.00 86 1015.0
20260508051034 6 298 0.0 0.0 0.00 0.00 0.00 85 1015.0
20260508050535 6 298 0.0 0.0 0.00 0.00 0.00 85 1015.1
20260508050032 6 298 0.0 0.0 0.00 0.00 0.00 85 1015.1
20260508045533 6 298 0.0 0.0 0.00 0.00 0.00 85 1015.1
20260508045033 6 298 0.0 0.0 0.00 0.00 0.00 86 1015.1
20260508044533 6 298 0.0 0.0 0.00 0.00 0.00 86 1015.1
20260508044033 6 298 0.0 0.0 0.00 0.00 0.00 86 1015.1
20260508043530 6 298 0.0 0.0 0.00 0.00 0.00 86 1015.0
20260508043031 6 298 0.0 0.0 0.00 0.00 0.00 86 1014.9
20260508042530 6 298 0.0 0.0 0.00 0.00 0.00 87 1015.0
20260508042031 6 298 0.0 0.0 0.00 0.00 0.00 86 1015.0
20260508041529 6 298 0.0 0.0 0.00 0.00 0.00 86 1015.0
20260508041030 6 298 0.0 0.0 0.00 0.00 0.00 86 1015.0
20260508040529 6 298 0.0 0.0 0.00 0.00 0.00 86 1014.9
20260508040031 6 298 0.0 3.2 0.00 0.00 0.00 85 1014.9
20260508035527 6 298 0.0 3.2 0.00 0.00 0.00 86 1015.1
20260508035027 6 298 0.0 0.0 0.00 0.00 0.00 86 1015.1
20260508034532 6 298 0.0 0.0 0.00 0.00 0.00 86 1015.0
20260508034026 6 298 0.0 0.0 0.00 0.00 0.00 86 1015.0
20260508033526 6 298 0.0 0.0 0.00 0.00 0.00 86 1014.9
20260508033026 6 298 0.0 0.0 0.00 0.00 0.00 86 1014.9
20260508032526 6 298 0.0 0.0 0.00 0.00 0.00 86 1015.0
20260508032028 6 298 0.0 0.0 0.00 0.00 0.00 87 1015.0
20260508031527 6 298 0.0 0.0 0.00 0.00 0.00 87 1015.0
20260508031026 6 298 0.0 0.0 0.00 0.00 0.00 86 1015.1
20260508030526 6 298 0.0 0.0 0.00 0.00 0.00 86 1015.0
20260508030028 6 298 0.0 0.0 0.00 0.00 0.00 85 1015.0
20260508025528 6 298 0.0 0.0 0.00 0.00 0.00 85 1015.0
20260508025025 6 298 0.0 0.0 0.00 0.00 0.00 84 1014.8
20260508024528 7 298 0.0 0.0 0.00 0.00 0.00 84 1014.9
20260508024025 7 298 0.0 0.0 0.00 0.00 0.00 83 1015.0
20260508023525 7 298 0.0 0.0 0.00 0.00 0.00 82 1014.9
20260508023029 7 298 0.0 0.0 0.00 0.00 0.00 81 1014.8
20260508022524 7 298 0.0 0.0 0.00 0.00 0.00 80 1014.8
20260508022024 7 298 0.0 0.0 0.00 0.00 0.00 80 1014.9
20260508021524 7 298 0.0 0.0 0.00 0.00 0.00 80 1014.9
20260508021024 7 298 0.0 0.0 0.00 0.00 0.00 80 1014.9
20260508020525 7 298 0.0 0.0 0.00 0.00 0.00 80 1015.0
20260508020024 7 298 0.0 0.0 0.00 0.00 0.00 80 1014.9
20260508015524 8 298 0.0 0.0 0.00 0.00 0.00 80 1014.9
20260508015024 8 298 0.0 0.0 0.00 0.00 0.00 79 1015.0
20260508014524 8 298 0.0 0.0 0.00 0.00 0.00 79 1014.9
20260508014024 8 298 0.0 0.0 0.00 0.00 0.00 78 1014.8
20260508013523 8 298 0.0 0.0 0.00 0.00 0.00 76 1014.7
20260508013023 8 298 0.0 0.0 0.00 0.00 0.00 74 1014.7
20260508012525 8 298 0.0 0.0 0.00 0.00 0.00 70 1014.7
20260508012023 8 298 0.0 0.0 0.00 0.00 0.00 67 1014.6
20260508011522 8 298 0.0 0.0 0.00 0.00 0.00 69 1014.7
20260508011022 9 298 0.0 0.0 0.00 0.00 0.00 68 1014.7
20260508010523 9 298 0.0 0.0 0.00 0.00 0.00 66 1014.7
20260508010027 9 298 0.0 0.0 0.00 0.00 0.00 63 1014.5
20260508005524 10 298 0.0 0.0 0.00 0.00 0.00 65 1014.5
20260508005021 10 298 0.0 0.0 0.00 0.00 0.00 66 1014.5
20260508004521 10 298 0.0 0.0 0.00 0.00 0.00 64 1014.5
20260508004023 11 298 0.0 0.0 0.00 0.00 0.00 62 1014.4
20260508003521 11 298 0.0 0.0 0.00 0.00 0.00 59 1014.5
20260508003023 11 298 0.0 0.0 0.00 0.00 0.00 57 1014.3
20260508002521 11 298 0.0 0.0 0.00 0.00 0.00 58 1014.4
20260508002021 12 298 0.0 0.0 0.00 0.00 0.00 56 1014.3
20260508001539 12 298 0.0 0.0 0.00 0.00 0.00 60 1014.3
20260508001021 12 298 0.0 1.6 0.00 0.00 0.00 59 1014.3
20260508000520 12 298 0.0 1.6 0.00 0.00 0.00 56 1014.3
20260508000021 12 298 0.0 1.6 0.00 0.00 0.00 55 1014.3
20260507235523 13 314 0.0 1.6 0.00 0.00 0.00 52 1014.2
20260507235024 13 325 0.0 0.0 0.00 0.00 0.00 49 1014.1
20260507234520 13 325 0.0 1.6 0.00 0.00 0.00 52 1014.1
20260507234020 13 324 0.0 1.6 0.00 0.00 0.00 47 1014.1
20260507233520 13 323 0.0 3.2 0.00 0.00 0.00 50 1014.0
20260507233025 13 323 0.0 3.2 0.00 0.00 0.00 46 1014.0
20260507232519 14 344 0.0 1.6 0.00 0.00 0.00 48 1013.9
20260507232019 14 344 0.0 6.4 0.00 0.00 0.00 51 1014.0
20260507231522 14 344 1.6 6.4 0.00 0.00 0.00 48 1014.1
20260507231021 14 245 0.0 3.2 0.00 0.00 0.00 48 1014.1
20260507230518 15 246 0.0 3.2 0.00 0.00 0.00 42 1014.1
20260507230028 15 237 0.0 3.2 0.00 0.00 0.00 43 1014.2
20260507225519 15 234 0.0 3.2 0.00 0.00 0.00 44 1014.2
20260507225021 15 211 0.0 3.2 0.00 0.00 0.00 42 1014.1
20260507224528 15 327 0.0 3.2 0.00 0.00 0.00 43 1014.1
20260507224017 16 327 0.0 8.0 0.00 0.00 0.00 39 1014.1
20260507223520 16 328 1.6 8.0 0.00 0.00 0.00 41 1014.1
20260507223018 16 313 0.0 4.8 0.00 0.00 0.00 45 1014.1
20260507222518 16 327 1.6 4.8 0.00 0.00 0.00 44 1014.1
20260507222017 16 346 0.0 4.8 0.00 0.00 0.00 41 1014.2
20260507221524 16 339 0.0 6.4 0.00 0.00 0.00 43 1014.2
20260507221017 16 265 1.6 8.0 0.00 0.00 0.00 41 1014.2
20260507220518 16 250 1.6 6.4 0.00 0.00 0.00 43 1014.2
20260507220019 16 57 1.6 6.4 0.00 0.00 0.00 40 1014.3
20260507215516 16 5 0.0 9.7 0.00 0.00 0.00 42 1014.2
20260507215020 17 36 1.6 9.7 0.00 0.00 0.00 43 1014.2
20260507214515 16 332 0.0 6.4 0.00 0.00 0.00 44 1014.2
20260507214015 16 332 1.6 6.4 0.00 0.00 0.00 46 1014.2
20260507213515 16 73 1.6 8.0 0.00 0.00 0.00 42 1014.2
20260507213015 16 339 1.6 8.0 0.00 0.00 0.00 44 1014.2
20260507212516 16 33 1.6 6.4 0.00 0.00 0.00 45 1014.2
20260507212017 16 280 0.0 8.0 0.00 0.00 0.00 44 1014.2
20260507211528 17 28 3.2 8.0 0.00 0.00 0.00 43 1014.1
20260507211015 16 244 1.6 8.0 0.00 0.00 0.00 44 1014.0
20260507210514 16 240 0.0 6.4 0.00 0.00 0.00 43 1014.1
20260507210015 16 282 0.0 9.7 0.00 0.00 0.00 43 1014.1
20260507205516 16 5 3.2 9.7 0.00 0.00 0.00 43 1014.0
20260507205014 16 247 1.6 8.0 0.00 0.00 0.00 43 1014.1
20260507204512 17 290 1.6 6.4 0.00 0.00 0.00 44 1014.0
20260507204013 16 329 1.6 6.4 0.00 0.00 0.00 40 1013.9
20260507203512 16 341 3.2 6.4 0.00 0.00 0.00 43 1014.0
20260507203012 16 77 0.0 9.7 0.00 0.00 0.00 42 1013.9
20260507202511 16 253 1.6 14.5 0.00 0.00 0.00 46 1013.9
20260507202011 17 273 1.6 14.5 0.00 0.00 0.00 45 1013.9
20260507201516 16 51 0.0 9.7 0.00 0.00 0.00 48 1014.0
20260507201011 16 355 3.2 9.7 0.00 0.00 0.00 42 1013.9